Change the Weather History Date:

Thursday, April 10, 2014

  Actual Average (KGNV) Record (KGNV)
Temperature  
Mean Temperature 60 °F 66 °F  
Max Temperature 75 °F 79 °F 92 °F (1908)
Min Temperature 46 °F 54 °F 36 °F (2000)
Degree Days  
Heating Degree Days 4 2  
Month to date heating degree days 22  
Since 1 July heating degree days 1193  
Cooling Degree Days 0 3  
Month to date cooling degree days 29  
Year to date cooling degree days 115  
Growing Degree Days 10 (Base 50)    
Moisture  
Dew Point 46 °F    
Average Humidity 60    
Maximum Humidity 100    
Minimum Humidity 27    
Precipitation  
Precipitation 0.00 in 0.10 in 1.05 in (1928)
Month to date precipitation 1.02  
Year to date precipitation 11.86  
Snow  
Snow 0.00 in 0.00 in 0.00 in ()
Month to date snowfall 0.0  
Since 1 July snowfall 0.0  
Snow Depth -    
Sea Level Pressure  
Sea Level Pressure 30.25 in    
Wind  
Wind Speed 2 mph (SSW)    
Max Wind Speed 10 mph    
Max Gust Speed -    
Visibility 10 miles    
Events      
T = Trace of Precipitation, MM = Missing Value Source: NWS Daily Summary

Daily Weather History Graph

Daily Weather History Graph

Search for Another Location

Airport or City:

Trip Planner

Search our weather history database for the weather conditions in past years. The results will help you decide how hot, cold, wet, or windy it might be!

Date:

Astronomy

Apr. 10, 2014 Rise Set
Actual Time 7:07 AM EDT 7:52 PM EDT
Civil Twilight 6:42 AM EDT 8:16 PM EDT
Nautical Twilight 6:14 AM EDT 8:45 PM EDT
Astronomical Twilight 5:45 AM EDT 9:14 PM EDT
Moon 3:52 PM EDT (4/10) 4:09 AM EDT (4/10)
Length of Visible Light 13h 33m
Length of Day
12h 45m
Waxing Gibbous, 79% of the Moon is Illuminated
Apr 10
Waxing Gibbous
Apr 15
Full
Apr 22
Last Quarter
Apr 29
New
May 6
First Quarter

Hourly Weather History & Observations

Time (EDT) Temp. Dew Point Humidity Pressure Visibility Wind Dir Wind Speed Gust Speed Precip Events Conditions
12:15 AM 51.8 °F 48.2 °F 88% 30.19 in 10.0 mi Calm Calm - N/A   Clear
12:35 AM 51.8 °F 48.2 °F 88% 30.19 in 10.0 mi Calm Calm - N/A   Clear
1:15 AM 53.6 °F 48.2 °F 82% 30.20 in 10.0 mi Calm Calm - N/A   Clear
1:35 AM 51.8 °F 48.2 °F 88% 30.20 in 10.0 mi Calm Calm - N/A   Clear
1:55 AM 51.8 °F 48.2 °F 88% 30.20 in 10.0 mi Calm Calm - N/A   Clear
2:15 AM 51.8 °F 48.2 °F 88% 30.20 in 10.0 mi Calm Calm - N/A   Clear
2:35 AM 51.8 °F 48.2 °F 88% 30.19 in 10.0 mi NNW 3.5 mph - N/A   Clear
2:55 AM 50.0 °F 48.2 °F 94% 30.19 in 10.0 mi Calm Calm - N/A   Clear
3:15 AM 51.8 °F 48.2 °F 88% 30.19 in 10.0 mi NW 3.5 mph - N/A   Clear
3:35 AM 48.2 °F 46.4 °F 93% 30.19 in 10.0 mi Calm Calm - N/A   Clear
3:55 AM 48.2 °F 48.2 °F 100% 30.20 in 9.0 mi Calm Calm - N/A   Clear
4:15 AM 48.2 °F 48.2 °F 100% 30.20 in 10.0 mi Calm Calm - N/A   Clear
4:35 AM 48.2 °F 46.4 °F 93% 30.20 in 10.0 mi Calm Calm - N/A   Clear
4:55 AM 48.2 °F 48.2 °F 100% 30.21 in 8.0 mi Calm Calm - N/A   Clear
5:15 AM 48.2 °F 48.2 °F 100% 30.21 in 10.0 mi Calm Calm - N/A   Clear
5:35 AM 48.2 °F 46.4 °F 93% 30.22 in 10.0 mi Calm Calm - N/A   Clear
5:55 AM 48.2 °F 48.2 °F 100% 30.22 in 7.0 mi NNW 3.5 mph - N/A   Clear
6:15 AM 48.2 °F 48.2 °F 100% 30.23 in 7.0 mi Calm Calm - N/A   Clear
6:35 AM 46.4 °F 46.4 °F 100% 30.24 in 8.0 mi Calm Calm - N/A   Clear
6:55 AM 48.2 °F 46.4 °F 93% 30.25 in 8.0 mi Calm Calm - N/A   Clear
7:15 AM 48.2 °F 48.2 °F 100% 30.26 in 7.0 mi North 3.5 mph - N/A   Clear
7:35 AM 48.2 °F 48.2 °F 100% 30.27 in 9.0 mi Calm Calm - N/A   Clear
8:15 AM 53.6 °F 51.8 °F 94% 30.28 in 10.0 mi Calm Calm - N/A   Clear
8:35 AM 57.2 °F 51.8 °F 82% 30.28 in 10.0 mi North 6.9 mph - N/A   Clear
8:55 AM 59.0 °F 51.8 °F 77% 30.28 in 10.0 mi North 5.8 mph - N/A   Clear
9:15 AM 62.6 °F 51.8 °F 68% 30.29 in 10.0 mi North 3.5 mph - N/A   Clear
9:35 AM 64.4 °F 51.8 °F 64% 30.29 in 10.0 mi NNW 3.5 mph - N/A   Clear
9:55 AM 66.2 °F 48.2 °F 52% 30.30 in 10.0 mi NW 3.5 mph - N/A   Clear
10:15 AM 69.8 °F 44.6 °F 40% 30.31 in 10.0 mi Calm Calm - N/A   Clear
10:35 AM 69.8 °F 42.8 °F 38% 30.32 in 10.0 mi Calm Calm - N/A   Clear
10:55 AM 71.6 °F 41.0 °F 33% 30.33 in 10.0 mi SW 4.6 mph - N/A   Clear
11:15 AM 71.6 °F 39.2 °F 31% 30.33 in 10.0 mi WSW 4.6 mph - N/A   Clear
11:35 AM 71.6 °F 39.2 °F 31% 30.32 in 10.0 mi Calm Calm - N/A   Clear
11:55 AM 71.6 °F 39.2 °F 31% 30.32 in 10.0 mi South 6.9 mph - N/A   Clear
12:15 PM 71.6 °F 39.2 °F 31% 30.32 in 10.0 mi South 6.9 mph - N/A   Clear
12:35 PM 71.6 °F 37.4 °F 29% 30.31 in 10.0 mi South 6.9 mph - N/A   Clear
12:55 PM 73.4 °F 39.2 °F 29% 30.30 in 10.0 mi SW 10.4 mph - N/A   Clear
1:15 PM 73.4 °F 39.2 °F 29% 30.30 in 10.0 mi South 9.2 mph - N/A   Clear
1:35 PM 73.4 °F 39.2 °F 29% 30.29 in 10.0 mi SSW 4.6 mph - N/A   Clear
1:55 PM 73.4 °F 39.2 °F 29% 30.29 in 10.0 mi South 6.9 mph - N/A   Clear
2:35 PM 75.2 °F 39.2 °F 27% 30.27 in 10.0 mi WSW 3.5 mph - N/A   Clear
2:55 PM 75.2 °F 41.0 °F 29% 30.27 in 10.0 mi SW 5.8 mph - N/A   Clear
3:15 PM 75.2 °F 41.0 °F 29% 30.26 in 10.0 mi WSW 9.2 mph - N/A   Clear
3:35 PM 75.2 °F 41.0 °F 29% 30.25 in 10.0 mi SSW 9.2 mph - N/A   Clear
3:55 PM 75.2 °F 41.0 °F 29% 30.24 in 10.0 mi WSW 3.5 mph - N/A   Clear
4:15 PM 75.2 °F 41.0 °F 29% 30.23 in 10.0 mi West 4.6 mph - N/A   Clear
4:35 PM 75.2 °F 39.2 °F 27% 30.23 in 10.0 mi Calm Calm - N/A   Clear
4:55 PM 75.2 °F 41.0 °F 29% 30.23 in 10.0 mi SW 5.8 mph - N/A   Clear
5:15 PM 75.2 °F 41.0 °F 29% 30.22 in 10.0 mi WSW 8.1 mph - N/A   Clear
5:35 PM 75.2 °F 41.0 °F 29% 30.22 in 10.0 mi SW 6.9 mph - N/A   Clear
5:55 PM 75.2 °F 41.0 °F 29% 30.22 in 10.0 mi SSW 4.6 mph - N/A   Clear
6:15 PM 75.2 °F 41.0 °F 29% 30.22 in 10.0 mi SW 5.8 mph - N/A   Clear
6:35 PM 75.2 °F 41.0 °F 29% 30.22 in 10.0 mi SW 6.9 mph - N/A   Clear
6:55 PM 75.2 °F 42.8 °F 31% 30.22 in 10.0 mi WSW 4.6 mph - N/A   Clear
7:15 PM 75.2 °F 42.8 °F 31% 30.22 in 10.0 mi Calm Calm - N/A   Scattered Clouds
7:35 PM 73.4 °F 46.4 °F 38% 30.23 in 10.0 mi ESE 6.9 mph - N/A   Mostly Cloudy
7:55 PM 71.6 °F 48.2 °F 43% 30.24 in 10.0 mi ESE 8.1 mph - N/A   Scattered Clouds
8:15 PM 69.8 °F 48.2 °F 46% 30.24 in 10.0 mi East 8.1 mph - N/A   Mostly Cloudy
8:35 PM 68.0 °F 48.2 °F 49% 30.25 in 10.0 mi East 6.9 mph - N/A   Partly Cloudy
8:55 PM 66.2 °F 50.0 °F 56% 30.25 in 10.0 mi ESE 5.8 mph - N/A   Clear
9:35 PM 64.4 °F 50.0 °F 59% 30.27 in 10.0 mi ESE 5.8 mph - N/A   Clear
9:55 PM 64.4 °F 51.8 °F 64% 30.28 in 10.0 mi East 5.8 mph - N/A   Clear
10:15 PM 64.4 °F 51.8 °F 64% 30.28 in 10.0 mi East 5.8 mph - N/A   Clear
10:35 PM 62.6 °F 51.8 °F 68% 30.29 in 10.0 mi East 4.6 mph - N/A   Clear
11:15 PM 60.8 °F 51.8 °F 72% 30.29 in 10.0 mi ESE 4.6 mph - N/A   Clear
11:35 PM 60.8 °F 51.8 °F 72% 30.29 in 10.0 mi ESE 3.5 mph - N/A   Clear
11:55 PM 60.8 °F 51.8 °F 72% 30.28 in 10.0 mi Calm Calm - N/A   Clear